Regional Weather Roundup
Issued by NWS Mobile, AL

Home | Current Version | Previous Version | Text Only | Print | Product List | Glossary On
Versions: 1 2 3 4 5 6 7 8 9 10 11 12 13 14 15 16 17 18 19 20 21 22 23 24 25 26 27
000
ASUS44 KMOB 221713
RWRMOB
REGIONAL WEATHER ROUNDUP
NATIONAL WEATHER SERVICE MOBILE AL
1200 PM CDT SUN OCT 22 2017

NOTE: "FAIR" INDICATES FEW OR NO CLOUDS BELOW 12,000 FEET WITH NO
      SIGNIFICANT WEATHER AND/OR OBSTRUCTIONS TO VISIBILITY.

  * THESE STATIONS ARE PART OF THE UNIVERSITY OF SOUTH ALABAMA
    MESONET AND ARE NOT UNDER NWS OR FAA QUALITY CONTROL.

ALZ061>064-221800-
COASTAL ALABAMA

CITY           SKY/WX    TMP DP  RH WIND       PRES   REMARKS
MOBILE REG APT TSTM      71  70  96 W10       30.08R VSB 3/4
BROOKLEY FIELD TSTM      78  75  90 SE15      30.05F
USA CAMPUS*    NOT AVBL
DOG RIVER*     NOT AVBL


CITY           SKY/WX    TMP DP  RH WIND       PRES   REMARKS
GULF SHORES    RAIN      78  76  94 E15G30    30.06F

$$

ALZ051>060-221800-
INTERIOR SOUTHWEST AND SOUTH CENTRAL ALABAMA

CITY           SKY/WX    TMP DP  RH WIND       PRES   REMARKS
GREENVILLE     CLOUDY    77  65  66 SE9G17    30.12
EVERGREEN      CLOUDY    75  67  76 SE7       30.11F
ATMORE*          N/A    N/A N/A N/A E9          N/A
ANDALUSIA/OPP  PTSUNNY   82  68  62 SE9       30.11F
ANDALUSIA*       N/A     77  68  73 SE8       30.12F
FLORALA APT    MOSUNNY   79  67  66 SE10      30.14S
FLORALA*         N/A     81  70  69 NE8       30.84F

$$

FLZ001>006-221800-
WESTERN FLORIDA PANHANDLE

CITY           SKY/WX    TMP DP  RH WIND       PRES   REMARKS
PENSACOLA      CLOUDY    81  72  74 E13G23    30.09S
NAS PENSACOLA  CLOUDY    80  73  79 E17G28    30.07F
MILTON         CLOUDY    79  73  82 SE15G21   30.09F
WHTNG S FIELD  CLOUDY    83  69  62 SE18      30.09F


CITY           SKY/WX    TMP DP  RH WIND       PRES   REMARKS
JAY*           NOT AVBL
DUKE FIELD     MOSUNNY   82  69  64 SE12        N/A
CRESTVIEW      PTSUNNY   83  69  62 SE9G16    30.12F
VALPARAISO     PTSUNNY   80  70  70 SE18      30.10F
DESTIN         PTSUNNY   83  70  64 SE18      30.10F

$$

MSZ076-079-221800-
INTERIOR SOUTHEAST MISSISSIPPI

CITY           SKY/WX    TMP DP  RH WIND       PRES   REMARKS
LEAKESVILLE*   NOT AVBL
AGRICOLA*        N/A     66  66 100 N12       30.04F

$$

MARINE OBSERVATIONS

STATION/POSITION TIME  TEMP    WIND        PRES    WAVE
                       AIR SEA DIR/SP/G            HT/PER
                 (UTC) (F)     (DEG/KT/KT) (MB)    (FT/S)
PASCAGOULA       1648   76     140/ 17/ 23 1017.2R
PETIT BOIS ISLND 1648   79     140/ 20/ 26 1017.2F
GRAND BAY        1545   77     130/ 15     1018.0S
KATRINA CUT      1630   79     130/ 19     1016.9F
CEDAR POINT      1630   79     130/ 16     1018.0S
E DAUPHIN ISLAND 1600   79     120/ 19/ 22 1017.4S
MIDDLE BAY LIGHT 1630   78     120/ 21     1016.6F
USCG MOBILE BAY  1648   76 75  120/  7/ 11 1017.7F
STATE DOCKS      1636   76 77              1017.8F
MEAHER PARK      1630   77      90/  6     1017.6S
WEEKS BAY        1545   79                 1018.0S
FORT MORGAN      1648   80     130/ 21/ 23   N/A
12 S ORANGE BCH  1650      79  220/ 17/ 23 1017.5F   6/ 8
PENSACOLA BAY    1636   81 74              1018.9F
64 S DAUPHIN ISL 1650   81 81  120/ 16/ 19 1017.2F   7/ 8
67 S FORT MORGAN 1630   80     120/ 19     1017.3S

$$

SELECTED LOCATIONS ACROSS THE REGION

CITY           SKY/WX    TMP DP  RH WIND       PRES   REMARKS
NEW ORLEANS    TSTM      67  64  90 NW22G39   30.09R FOG
GULFPORT       RAIN      72  71  97 SE7       30.04S FOG
PASCAGOULA AP  HVY RAIN  71  68  90 NW10      30.05R FOG
PASCAGOULA*    NOT AVBL
HATTIESBURG    CLOUDY    68  68 100 E10       30.06F
LAUREL         CLOUDY    68  67  96 E8        30.06S
MERIDIAN       RAIN      68  66  93 S14       30.07F
JACKSON        RAIN      67  64  90 NW5       30.07R FOG
MONTGOMERY     PTSUNNY   80  65  59 E8        30.13F
TROY           CLOUDY    79  69  71 SE14      30.14F
ASHFORD*         N/A     77  68  73 SE8       30.12F
DOTHAN         MOSUNNY   82  68  62 SE15      30.17F
PANAMA CITY    CLOUDY    81  69  67 E10G21    30.11S

$$





USA.gov is the U.S. government's official web portal to all federal, state and local government web resources and services.